This demonstration page uses our WeatherBlox Daily Observations layout. Learn more.

Left ArrowRight Arrow

44.8408, -93.29828

Hourly Observations for September 30, 2016

Temp ( °F °C ) Dew Point ( °F °C ) Humidity (%) Winds ( mph kmh ) Pressure ( in mb ) Visibility ( mi km ) Precip ( " mm )
12:53 am 00:53 Clear 56 13.3 51 10.6 84 84 Calm 30.39 1029 10 16 0.00 0.00
1:53 am 01:53 Clear 53 11.7 50 10 89 89 NNE 3 6 30.38 1029 9 14 0.00 0.00
2:53 am 02:53 Clear 53 11.7 49 9.4 86 86 NNE 3 6 30.38 1029 10 16 0.00 0.00
3:53 am 03:53 Clear 51 10.6 48 8.9 89 89 N 3 6 30.38 1029 10 16 0.00 0.00
4:53 am 04:53 Clear 51 10.6 48 8.9 89 89 N 5 7 30.37 1029 10 16 0.00 0.00
5:53 am 05:53 Clear 50 10 48 8.9 93 93 N 6 9 30.39 1029 10 16 0.00 0.00
6:53 am 06:53 Clear 50 10 48 8.9 93 93 N 6 9 30.39 1029 9 14 0.00 0.00
7:25 am 07:25 Mostly Sunny 50 10 48 8.9 93 93 N 8 13 30.36 1028 8 13 0.00 0.00
7:40 am 07:40 Mostly Cloudy 52 11 48 9 88 88 N 8 13 30.36 1028 8 13 0.00 0.00
7:53 am 07:53 Mostly Cloudy with Mist and Fog 51 10.6 49 9.4 92 92 NE 6 9 30.38 1029 2 3 0.00 0.00
8:09 am 08:09 Cloudy with Mist and Fog 51 10.6 49 9.4 92 92 NE 7 11 30.39 1029 5 8 0.00 0.00
8:53 am 08:53 Cloudy with Mist and Fog 52 11.1 49 9.4 89 89 NNE 7 11 30.39 1029 6 10 0.00 0.00
9:11 am 09:11 Mostly Cloudy 53 11.7 50 10 89 89 N 7 11 30.39 1029 8 13 0.00 0.00
9:25 am 09:25 Partly Cloudy 54 12.2 50 10 87 87 N 8 13 30.39 1029 8 13 0.00 0.00
9:53 am 09:53 Mostly Sunny 56 13.3 51 10.6 84 84 NNE 7 11 30.37 1029 10 16 0.00 0.00
10:53 am 10:53 Mostly Sunny 60 15.6 52 11.1 75 75 N 8 13 30.36 1028 10 16 0.00 0.00
11:53 am 11:53 Sunny 63 17.2 53 11.7 70 70 NNE 8 13 30.35 1028 10 16 0.00 0.00
12:53 pm 12:53 Sunny 66 18.9 53 11.7 63 63 N 10 17 30.32 1027 10 16 0.00 0.00
1:53 pm 13:53 Sunny 68 20 53 11.7 59 59 NE 8 13 30.29 1026 10 16 0.00 0.00
2:53 pm 14:53 Sunny 70 21.1 51 10.6 51 51 ENE 9 15 30.25 1025 10 16 0.00 0.00
3:53 pm 15:53 Mostly Sunny 71 21.7 51 10.6 49 49 NNE 9 15 30.24 1024 10 16 0.00 0.00
4:53 pm 16:53 Mostly Sunny 71 21.7 49 9.4 46 46 NE 12 19 30.22 1023 10 16 0.00 0.00
5:53 pm 17:53 Mostly Sunny 70 21.1 48 8.9 46 46 NE 10 17 30.22 1023 10 16 0.00 0.00
6:53 pm 18:53 Mostly Sunny 67 19.4 49 9.4 53 53 NNE 7 11 30.21 1023 10 16 0.00 0.00
7:53 pm 19:53 Partly Cloudy 63 17.2 51 10.6 65 65 NNE 7 11 30.22 1023 10 16 0.00 0.00
8:53 pm 20:53 Mostly Cloudy 65 18.3 51 10.6 61 61 NE 10 17 30.21 1023 10 16 0.00 0.00
9:53 pm 21:53 Mostly Cloudy 63 17.2 51 10.6 65 65 NNE 9 15 30.21 1023 10 16 0.00 0.00
10:53 pm 22:53 Mostly Clear 60 15.6 52 11.1 75 75 NNE 9 15 30.21 1023 10 16 0.00 0.00
11:53 pm 23:53 Mostly Cloudy 60 15.6 52 11.1 75 75 ENE 8 13 30.20 1023 10 16 0.00 0.00

Powered by AerisWeather